GW5454 Weather Reports


time (UTC)temp
F
wind
direction
speed
knots
gust
knots
rain 1hr
in
rain 24hr
in
rain mn
in
humidity
%
barometer
mb
20260507203327 80 203 1.7 4.3 0.00 0.00 0.00 26 1014.3
20260507202823 80 201 0.9 3.5 0.00 0.00 0.00 27 1014.1
20260507202319 79 226 3.5 4.3 0.00 0.00 0.00 29 1014.3
20260507201814 79 199 1.7 4.3 0.00 0.00 0.00 28 1014.2
20260507201311 79 227 0.9 1.7 0.00 0.00 0.00 30 1014.2
20260507200807 79 219 1.7 6.1 0.00 0.00 0.00 30 1014.4
20260507200303 79 193 1.7 4.3 0.00 0.00 0.00 29 1014.5
20260507195759 78 200 0.0 3.5 0.00 0.00 0.00 28 1014.5
20260507195257 78 146 4.3 4.3 0.00 0.00 0.00 27 1014.5
20260507194754 79 188 2.6 4.3 0.00 0.00 0.00 29 1014.5
20260507194249 79 156 2.6 4.3 0.00 0.00 0.00 27 1014.5
20260507193746 79 207 1.7 4.3 0.00 0.00 0.00 31 1014.7
20260507193243 78 192 2.6 3.5 0.00 0.00 0.00 30 1014.6
20260507192739 79 179 3.5 4.3 0.00 0.00 0.00 29 1014.6
20260507192236 78 194 0.0 3.5 0.00 0.00 0.00 31 1014.7
20260507191732 77 202 1.7 1.7 0.00 0.00 0.00 35 1014.9
20260507191229 76 200 2.6 6.1 0.00 0.00 0.00 34 1015.0
20260507190726 75 183 0.0 3.5 0.00 0.00 0.00 35 1014.9
20260507190225 75 228 4.3 7.8 0.00 0.00 0.00 35 1015.0
20260507185724 74 191 0.0 3.5 0.00 0.00 0.00 39 1014.9
20260507185220 73 223 3.5 6.1 0.00 0.00 0.00 39 1014.8
20260507184718 74 116 10.4 13.0 0.00 0.00 0.00 37 1014.8
20260507184215 74 157 5.2 7.8 0.00 0.00 0.00 37 1014.9
20260507183711 74 307 3.5 7.8 0.00 0.00 0.00 39 1015.0
20260507183208 74 92 2.6 11.3 0.00 0.00 0.00 40 1014.9
20260507182705 74 205 2.6 4.3 0.00 0.00 0.00 38 1014.8
20260507182200 75 256 4.3 6.1 0.00 0.00 0.00 39 1014.9
20260507181657 74 202 0.9 1.7 0.00 0.00 0.00 39 1015.0
20260507181154 74 280 3.5 4.3 0.00 0.00 0.00 39 1014.9
20260507180650 75 250 3.5 7.8 0.00 0.00 0.00 38 1014.8
20260507180147 76 257 3.5 6.1 0.00 0.00 0.00 37 1015.0
20260507175643 76 199 0.0 1.7 0.00 0.00 0.00 40 1015.0
20260507175140 76 194 1.7 3.5 0.00 0.00 0.00 36 1015.0
20260507174637 76 178 0.0 1.7 0.00 0.00 0.00 38 1015.3
20260507174136 76 157 1.7 3.5 0.00 0.00 0.00 34 1015.2
20260507173633 77 182 0.9 3.5 0.00 0.00 0.00 33 1015.2
20260507173129 77 189 0.9 1.7 0.00 0.00 0.00 34 1015.1
20260507172626 77 196 2.6 4.3 0.00 0.00 0.00 32 1015.1
20260507172123 76 212 0.0 1.7 0.00 0.00 0.00 34 1015.5
20260507171618 76 193 0.9 1.7 0.00 0.00 0.00 35 1015.4
20260507171115 76 192 0.9 1.7 0.00 0.00 0.00 35 1015.3
20260507170612 76 299 5.2 6.1 0.00 0.00 0.00 33 1015.2
20260507170109 76 187 0.9 3.5 0.00 0.00 0.00 37 1015.3
20260507165604 76 179 0.9 1.7 0.00 0.00 0.00 37 1015.4
20260507165101 75 186 0.0 1.7 0.00 0.00 0.00 36 1015.5
20260507164557 75 182 0.9 3.5 0.00 0.00 0.00 36 1015.4
20260507164054 74 183 1.7 3.5 0.00 0.00 0.00 35 1015.3
20260507163552 74 206 0.9 1.7 0.00 0.00 0.00 38 1015.4
20260507163050 74 183 0.0 3.5 0.00 0.00 0.00 39 1015.5
20260507162549 73 206 0.9 1.7 0.00 0.00 0.00 39 1015.4
20260507162047 72 190 1.7 1.7 0.00 0.00 0.00 41 1015.4
20260507161543 72 182 0.0 1.7 0.00 0.00 0.00 41 1015.3
20260507161040 72 221 0.9 1.7 0.00 0.00 0.00 42 1015.4
20260507160536 71 183 0.0 1.7 0.00 0.00 0.00 42 1015.3
20260507160032 72 319 3.5 4.3 0.00 0.00 0.00 40 1015.4
20260507155528 72 190 0.9 1.7 0.00 0.00 0.00 42 1015.5
20260507155025 71 192 0.0 1.7 0.00 0.00 0.00 43 1015.3
20260507154522 71 188 0.9 3.5 0.00 0.00 0.00 45 1015.2
20260507154019 70 183 0.0 1.7 0.00 0.00 0.00 46 1015.2
20260507153516 70 194 0.9 1.7 0.00 0.00 0.00 45 1015.2
20260507153012 70 190 0.9 3.5 0.00 0.00 0.00 46 1015.4
20260507152508 69 296 0.9 1.7 0.00 0.00 0.00 47 1015.2
20260507152005 69 191 0.0 1.7 0.00 0.00 0.00 47 1015.2
20260507151501 69 201 0.9 3.5 0.00 0.00 0.00 48 1015.4
20260507150958 68 184 0.0 1.7 0.00 0.00 0.00 52 1015.3
20260507150454 67 168 0.9 1.7 0.00 0.00 0.00 54 1015.2
20260507145951 66 194 0.0 1.7 0.00 0.00 0.00 54 1015.1
20260507145446 66 222 0.9 3.5 0.00 0.00 0.00 54 1015.3
20260507144944 66 208 0.0 1.7 0.00 0.00 0.00 56 1015.0
20260507144441 66 229 0.0 3.5 0.00 0.00 0.00 55 1015.2
20260507143938 66 172 0.9 1.7 0.00 0.00 0.00 55 1015.1
20260507143435 66 182 0.9 1.7 0.00 0.00 0.00 55 1015.1
20260507142932 66 179 0.9 1.7 0.00 0.00 0.00 55 1015.1
20260507142427 65 180 0.0 1.7 0.00 0.00 0.00 55 1015.2
20260507141925 64 181 0.0 0.0 0.00 0.00 0.00 57 1015.2
20260507141421 64 175 0.0 1.7 0.00 0.00 0.00 57 1015.2
20260507140918 63 182 0.0 0.0 0.00 0.00 0.00 59 1015.1
20260507140414 63 187 0.0 1.7 0.00 0.00 0.00 60 1015.0
20260507135912 63 188 0.0 1.7 0.00 0.00 0.00 62 1014.8
20260507135408 62 186 0.0 0.0 0.00 0.00 0.00 64 1015.0
20260507134906 61 190 0.0 1.7 0.00 0.00 0.00 64 1015.0
20260507134402 60 186 0.0 1.7 0.00 0.00 0.00 67 1015.0
20260507133858 59 185 0.0 1.7 0.00 0.00 0.00 68 1014.7
20260507133354 58 194 0.0 1.7 0.00 0.00 0.00 70 1014.6
20260507132853 58 266 2.6 4.3 0.00 0.00 0.00 71 1014.7
20260507132349 57 188 0.0 4.3 0.00 0.00 0.00 73 1014.5
20260507131846 56 201 1.7 1.7 0.00 0.00 0.00 74 1014.6
20260507131343 56 197 1.7 4.3 0.00 0.00 0.00 74 1014.4
20260507130840 56 179 1.7 6.1 0.00 0.00 0.00 74 1014.3
20260507130336 56 183 1.7 4.3 0.00 0.00 0.00 74 1014.5
20260507125836 56 216 1.7 4.3 0.00 0.00 0.00 74 1014.2
20260507125333 56 222 2.6 9.6 0.00 0.00 0.00 75 1014.2
20260507124830 56 203 1.7 4.3 0.00 0.00 0.00 74 1014.2
20260507124326 56 215 2.6 4.3 0.00 0.00 0.00 74 1014.3
20260507123825 56 246 3.5 4.3 0.00 0.00 0.00 73 1014.2
20260507123322 56 249 4.3 6.1 0.00 0.00 0.00 74 1014.0
20260507122818 56 186 1.7 3.5 0.00 0.00 0.00 72 1014.2
20260507122313 56 246 1.7 3.5 0.00 0.00 0.00 72 1014.3
20260507121810 57 259 0.9 3.5 0.00 0.00 0.00 72 1014.2
20260507121306 57 192 0.0 1.7 0.00 0.00 0.00 71 1014.2
20260507120802 57 236 1.7 4.3 0.00 0.00 0.00 71 1014.1
20260507120258 57 255 3.5 6.1 0.00 0.00 0.00 71 1014.0
20260507115755 57 198 0.9 3.5 0.00 0.00 0.00 69 1014.0
20260507115250 57 205 0.9 3.5 0.00 0.00 0.00 69 1014.0
20260507114746 57 233 1.7 4.3 0.00 0.00 0.00 69 1013.9
20260507114244 57 253 4.3 6.1 0.00 0.00 0.00 70 1014.1
20260507113741 57 209 1.7 4.3 0.00 0.00 0.00 70 1014.0
20260507113238 57 205 3.5 4.3 0.00 0.00 0.00 70 1013.7
20260507112735 56 264 4.3 7.8 0.00 0.00 0.00 71 1014.0
20260507112232 56 261 3.5 7.8 0.00 0.00 0.00 73 1014.2
20260507111730 55 210 3.5 4.3 0.00 0.00 0.00 75 1014.0
20260507111227 55 192 0.9 3.5 0.00 0.00 0.00 75 1014.0
20260507110722 55 172 0.0 0.0 0.00 0.00 0.00 75 1014.1
20260507110219 55 166 0.0 1.7 0.00 0.00 0.00 77 1014.2
20260507105716 54 185 0.0 4.3 0.00 0.00 0.00 78 1013.9
20260507105212 54 191 0.9 1.7 0.00 0.00 0.00 76 1013.9
20260507104710 54 173 0.0 0.0 0.00 0.00 0.00 74 1014.1
20260507104206 55 171 0.0 0.0 0.00 0.00 0.00 73 1014.1
20260507103702 55 166 0.0 0.0 0.00 0.00 0.00 72 1014.1
20260507103159 56 163 0.9 1.7 0.00 0.00 0.00 72 1014.1
20260507102655 56 10 1.7 4.3 0.00 0.00 0.00 72 1014.2
20260507102152 56 14 3.5 4.3 0.00 0.00 0.00 72 1014.2
20260507101647 56 164 0.0 1.7 0.00 0.00 0.00 72 1013.7
20260507101143 56 270 2.6 3.5 0.00 0.00 0.00 72 1013.8
20260507100641 56 198 0.9 1.7 0.00 0.00 0.00 72 1014.0
20260507100140 57 175 0.0 1.7 0.00 0.00 0.00 71 1013.8
20260507095637 58 180 0.0 0.0 0.00 0.00 0.00 71 1013.6
20260507095133 58 184 0.0 1.7 0.00 0.00 0.00 69 1013.9
20260507094629 57 190 1.7 3.5 0.00 0.00 0.00 69 1013.8
20260507094126 58 189 0.0 0.0 0.00 0.00 0.00 68 1013.7
20260507093624 58 182 0.0 1.7 0.00 0.00 0.00 68 1013.6
20260507093123 58 191 0.0 1.7 0.00 0.00 0.00 68 1013.6
20260507092618 58 192 0.9 1.7 0.00 0.00 0.00 68 1013.6
20260507092115 58 205 1.7 3.5 0.00 0.00 0.00 68 1013.5
20260507091612 59 206 1.7 3.5 0.00 0.00 0.00 68 1013.5
20260507091108 58 174 1.7 6.1 0.00 0.00 0.00 68 1013.5
20260507090604 58 188 0.9 1.7 0.00 0.00 0.00 68 1013.8
20260507090101 59 181 0.0 0.0 0.00 0.00 0.00 66 1013.8
20260507085558 59 181 0.0 1.7 0.00 0.00 0.00 65 1013.6
20260507085055 59 194 0.9 1.7 0.00 0.00 0.00 66 1013.7
20260507084551 59 202 0.9 3.5 0.00 0.00 0.00 66 1013.7
20260507084048 59 194 0.0 1.7 0.00 0.00 0.00 67 1013.7
20260507083544 59 189 0.0 1.7 0.00 0.00 0.00 67 1013.6
20260507083042 59 207 0.0 1.7 0.00 0.00 0.00 67 1013.5
20260507082537 58 210 1.7 3.5 0.00 0.00 0.00 68 1013.5
20260507082034 58 271 0.9 3.5 0.00 0.00 0.00 70 1013.5
20260507081530 57 213 1.7 3.5 0.00 0.00 0.00 71 1013.4
20260507081028 58 196 0.0 1.7 0.00 0.00 0.00 69 1013.6
20260507080523 58 194 0.0 1.7 0.00 0.00 0.00 68 1013.7
20260507080020 59 194 0.0 0.0 0.00 0.00 0.00 67 1013.5
20260507075515 59 194 0.0 1.7 0.00 0.00 0.00 67 1013.6
20260507075012 60 191 0.0 0.0 0.00 0.00 0.00 66 1013.7
20260507074509 60 196 0.0 1.7 0.00 0.00 0.00 65 1013.6
20260507074008 61 190 0.0 0.0 0.00 0.00 0.00 61 1013.4
20260507073503 62 191 0.0 0.0 0.00 0.00 0.00 59 1013.4
20260507072959 63 191 0.0 0.0 0.00 0.00 0.00 59 1013.3
20260507072457 63 102 0.0 1.7 0.00 0.00 0.00 58 1013.3
20260507071954 63 331 2.6 3.5 0.00 0.00 0.00 59 1013.2
20260507071451 62 190 1.7 4.3 0.00 0.00 0.00 60 1013.1
20260507070948 61 189 0.0 3.5 0.00 0.00 0.00 61 1013.0
20260507070445 61 196 0.0 1.7 0.00 0.00 0.00 63 1012.9
20260507065942 61 217 0.9 1.7 0.00 0.00 0.00 61 1012.8
20260507065439 62 222 1.7 1.7 0.00 0.00 0.00 61 1012.8
20260507064936 62 200 0.0 1.7 0.00 0.00 0.00 60 1012.5
20260507064434 63 235 0.0 1.7 0.00 0.00 0.00 59 1012.6
20260507063932 63 190 1.7 3.5 0.00 0.00 0.00 59 1012.5
20260507063428 63 203 2.6 4.3 0.00 0.00 0.00 60 1012.5
20260507062925 63 212 0.9 4.3 0.00 0.00 0.00 60 1012.2
20260507062423 63 191 0.0 3.5 0.00 0.00 0.00 60 1012.3
20260507061920 63 195 1.7 1.7 0.00 0.00 0.00 59 1012.4
20260507061418 64 214 0.9 6.1 0.00 0.00 0.00 59 1012.5
20260507060916 64 288 0.9 7.8 0.00 0.00 0.00 59 1012.3
20260507060412 64 154 5.2 9.6 0.00 0.00 0.00 59 1012.4
20260507055909 64 334 3.5 6.1 0.00 0.00 0.00 59 1012.4
20260507055404 64 183 3.5 7.8 0.00 0.00 0.00 58 1012.5
20260507054902 64 205 3.5 6.1 0.00 0.00 0.00 59 1012.5
20260507054357 64 218 3.5 4.3 0.00 0.00 0.00 59 1012.6
20260507053855 64 175 3.5 6.1 0.00 0.00 0.00 58 1012.5
20260507053352 64 226 6.1 9.6 0.00 0.00 0.00 59 1012.5
20260507052851 65 124 4.3 7.8 0.00 0.00 0.00 58 1012.4
20260507052348 65 178 0.0 1.7 0.00 0.00 0.00 57 1012.6
20260507051845 65 183 0.0 1.7 0.00 0.00 0.00 55 1012.6
20260507051343 65 186 1.7 3.5 0.00 0.00 0.00 55 1012.6
20260507050839 65 185 1.7 3.5 0.00 0.00 0.00 55 1012.6
20260507050336 64 110 3.5 4.3 0.00 0.00 0.00 54 1012.5
20260507045833 64 168 0.0 1.7 0.00 0.00 0.00 52 1012.6
20260507045329 65 174 0.0 0.0 0.00 0.00 0.00 53 1012.3
20260507044826 66 185 3.5 6.1 0.00 0.00 0.00 53 1012.5
20260507044323 66 170 0.9 3.5 0.00 0.00 0.00 48 1012.2
20260507043819 66 172 0.0 1.7 0.00 0.00 0.00 45 1012.3
20260507043316 66 172 0.0 0.0 0.00 0.00 0.00 46 1012.4
20260507042812 66 188 0.0 3.5 0.00 0.00 0.00 45 1012.3
20260507042308 67 178 0.0 1.7 0.00 0.00 0.00 46 1012.4
20260507041805 67 173 0.0 3.5 0.00 0.00 0.00 45 1012.2
20260507041301 68 171 0.0 0.0 0.00 0.00 0.00 44 1012.2
20260507040758 69 161 0.0 1.7 0.00 0.00 0.00 44 1012.1
20260507040254 70 191 1.7 3.5 0.00 0.00 0.00 41 1012.1
20260507035751 71 184 0.0 1.7 0.00 0.00 0.00 37 1011.8
20260507035246 72 190 0.0 0.0 0.00 0.00 0.00 37 1011.7
20260507034744 73 192 0.9 3.5 0.00 0.00 0.00 35 1011.5
20260507034240 73 205 0.9 4.3 0.00 0.00 0.00 35 1011.7
20260507033739 73 243 1.7 7.8 0.00 0.00 0.00 34 1011.6
20260507033236 74 287 3.5 6.1 0.00 0.00 0.00 34 1011.4
20260507032733 74 319 3.5 6.1 0.00 0.00 0.00 34 1011.6
20260507032229 74 288 5.2 9.6 0.00 0.00 0.00 33 1011.3
20260507031726 74 217 7.0 11.3 0.00 0.00 0.00 34 1011.3
20260507031223 74 188 2.6 7.8 0.00 0.00 0.00 36 1011.1
20260507030720 73 282 1.7 3.5 0.00 0.00 0.00 38 1011.1
20260507030217 73 318 3.5 6.1 0.00 0.00 0.00 37 1011.1
20260507025714 73 293 3.5 4.3 0.00 0.00 0.00 38 1010.9
20260507025211 74 187 0.9 1.7 0.00 0.00 0.00 39 1010.8
20260507024709 76 186 0.9 4.3 0.00 0.00 0.00 37 1010.8
20260507024206 77 189 0.9 7.8 0.00 0.00 0.00 34 1010.9
20260507023701 77 301 3.5 6.1 0.00 0.00 0.00 33 1010.7
20260507023159 77 229 4.3 7.8 0.00 0.00 0.00 33 1010.8
20260507022656 78 291 2.6 9.6 0.00 0.00 0.00 32 1010.7
20260507022152 78 312 4.3 7.8 0.00 0.00 0.00 32 1010.6
20260507021648 78 249 2.6 7.8 0.00 0.00 0.00 32 1010.7
20260507021143 78 311 5.2 7.8 0.00 0.00 0.00 31 1010.5
20260507020642 79 269 3.5 7.8 0.00 0.00 0.00 31 1010.3
20260507020138 79 323 7.0 9.6 0.00 0.00 0.00 30 1010.5
20260507015637 79 321 3.5 6.1 0.00 0.00 0.00 31 1010.5
20260507015133 79 163 3.5 6.1 0.00 0.00 0.00 30 1010.4
20260507014630 79 306 2.6 4.3 0.00 0.00 0.00 32 1010.3
20260507014126 78 140 4.3 7.8 0.00 0.00 0.00 31 1010.2
20260507013623 78 290 2.6 3.5 0.00 0.00 0.00 35 1010.2
20260507013120 79 184 0.0 0.0 0.00 0.00 0.00 41 1010.4
20260507012617 80 175 0.0 1.7 0.00 0.00 0.00 39 1010.2
20260507012113 80 187 0.0 1.7 0.00 0.00 0.00 39 1010.2
20260507011611 80 186 0.0 0.0 0.00 0.00 0.00 38 1010.3
20260507011107 80 212 0.9 6.1 0.00 0.00 0.00 38 1010.3
20260507010602 79 318 12.2 17.4 0.00 0.00 0.00 40 1010.3
20260507010058 78 293 8.7 11.3 0.00 0.00 0.00 43 1010.3
20260507005556 78 236 5.2 9.6 0.00 0.00 0.00 43 1009.6
20260507005051 78 59 4.3 11.3 0.00 0.00 0.00 42 1009.3
20260507004549 79 207 4.3 11.3 0.00 0.00 0.00 42 1009.3
20260507004046 78 165 3.5 11.3 0.00 0.00 0.00 42 1009.4
20260507003542 79 234 3.5 9.6 0.00 0.00 0.00 42 1009.4
20260507003037 79 210 7.0 16.5 0.00 0.00 0.00 42 1009.6
20260507002534 79 261 5.2 9.6 0.00 0.00 0.00 41 1009.4
20260507002025 79 217 8.7 13.0 0.00 0.00 0.00 41 1009.3
20260507001521 79 223 7.0 11.3 0.00 0.00 0.00 41 1009.5
20260507001018 80 253 6.1 11.3 0.00 0.00 0.00 40 1009.4
20260507000514 80 182 4.3 16.5 0.00 0.00 0.00 40 1009.4
20260507000010 80 277 7.0 11.3 0.00 0.00 0.00 40 1009.3
20260506235507 80 200 4.3 11.3 0.00 0.00 0.00 40 1009.3
20260506235003 80 84 4.3 11.3 0.00 0.00 0.00 40 1009.4
20260506234500 80 240 6.1 13.0 0.00 0.00 0.00 39 1009.4
20260506233958 80 39 1.7 9.6 0.00 0.00 0.00 40 1009.5
20260506233454 80 176 7.8 14.8 0.00 0.00 0.00 40 1009.4
20260506232951 81 279 5.2 9.6 0.00 0.00 0.00 40 1009.6
20260506232447 82 201 2.6 9.6 0.00 0.00 0.00 40 1009.7
20260506231943 82 278 7.8 14.8 0.00 0.00 0.00 39 1009.8
20260506231441 82 230 6.1 11.3 0.00 0.00 0.00 37 1009.9
20260506230938 83 251 3.5 11.3 0.00 0.00 0.00 37 1009.9
20260506230434 83 264 7.8 9.6 0.00 0.00 0.00 37 1009.9
20260506225931 83 253 3.5 6.1 0.00 0.00 0.00 35 1009.9
20260506225428 83 120 5.2 11.3 0.00 0.00 0.00 37 1010.1
20260506224925 83 192 7.0 11.3 0.00 0.00 0.00 36 1010.1
20260506224422 82 251 6.1 11.3 0.00 0.00 0.00 35 1010.1
20260506223918 82 192 4.3 7.8 0.00 0.00 0.00 35 1010.2
20260506223414 81 239 4.3 6.1 0.00 0.00 0.00 36 1010.4
20260506222911 81 185 2.6 7.8 0.00 0.00 0.00 37 1010.3
20260506222408 81 269 2.6 6.1 0.00 0.00 0.00 36 1010.5
20260506221905 81 275 7.8 19.1 0.00 0.00 0.00 34 1010.1
20260506221402 81 236 6.1 11.3 0.00 0.00 0.00 34 1010.4
20260506220859 82 223 5.2 13.0 0.00 0.00 0.00 35 1010.7
20260506220355 82 277 7.8 9.6 0.00 0.00 0.00 33 1010.6
20260506215852 82 273 7.8 11.3 0.00 0.00 0.00 33 1010.7
20260506215347 82 165 7.0 13.0 0.00 0.00 0.00 31 1010.6
20260506214844 82 131 4.3 17.4 0.00 0.00 0.00 33 1010.7
20260506214341 81 196 6.1 13.0 0.00 0.00 0.00 35 1010.8
20260506213839 81 192 8.7 11.3 0.00 0.00 0.00 36 1010.9
20260506213336 81 128 7.0 14.8 0.00 0.00 0.00 34 1011.0
20260506212833 81 204 10.4 14.8 0.00 0.00 0.00 35 1011.0
20260506212329 81 259 5.2 9.6 0.00 0.00 0.00 35 1011.3
20260506211824 81 220 1.7 7.8 0.00 0.00 0.00 36 1011.2
20260506211320 81 215 5.2 14.8 0.00 0.00 0.00 35 1011.0
20260506210818 82 191 3.5 11.3 0.00 0.00 0.00 35 1011.3
20260506210314 82 185 7.0 13.0 0.00 0.00 0.00 34 1011.2
20260506205812 81 195 7.8 11.3 0.00 0.00 0.00 34 1011.4
20260506205307 81 281 9.6 13.0 0.00 0.00 0.00 35 1011.4
20260506204804 81 211 1.7 6.1 0.00 0.00 0.00 36 1011.5
20260506204302 81 234 8.7 13.0 0.00 0.00 0.00 36 1011.4
20260506203759 81 283 3.5 9.6 0.00 0.00 0.00 36 1011.3